Lapse_Rate
6.4 6.3 6.6 7.5 6.9 6.6 6.5 6.5 6.6 7.1 6.8 6.4 6.8 7.0 7.5 7.0 7.2 7.6 7.6 7.5 7.6 7.6 7.4 6.9 6.8 6.8 6.8 6.9 6.9 6.7 6.6 6.7 6.6 6.6 6.5 6.4 6.4 6.4 6.4 6.3 6.4 6.2 6.2 6.0
6.3 6.2 7.1 6.9 6.4 6.4 6.5 6.4 6.6 7.0 6.8 6.2 6.6 6.9 7.4 7.4 7.4 7.7 7.8 7.8 7.9 7.7 7.6 7.3 7.0 6.9 6.9 6.8 6.8 6.8 6.7 6.7 6.6 6.6 6.6 6.5 6.4 6.4 6.3 6.4 6.5 6.4 6.3 6.2
6.4 6.5 6.8 6.7 6.5 6.5 6.6 6.4 6.7 6.6 6.6 6.3 6.4 6.6 7.4 7.9 8.1 7.9 8.0 8.2 8.1 8.0 7.9 7.7 7.4 7.1 6.9 7.0 7.0 6.8 6.5 6.4 6.4 6.4 6.4 6.4 6.3 6.3 6.4 6.5 6.4 6.3 6.2 6.1
6.2 6.3 6.5 6.6 6.5 6.6 6.4 6.8 6.6 6.4 6.1 5.9 5.9 4.7 7.0 7.9 8.2 8.2 8.3 8.4 8.3 8.2 7.8 7.9 7.8 7.3 7.1 7.1 6.9 6.7 6.6 6.5 6.4 6.4 6.3 6.3 6.2 6.2 6.3 6.2 6.2 6.2 6.2 6.2
6.6 6.8 7.0 6.9 7.1 7.1 6.5 6.6 6.4 6.1 6.0 5.8 5.5 5.1 6.0 7.8 8.1 8.3 8.4 8.5 8.4 8.2 7.9 8.0 7.3 7.4 7.1 7.0 7.1 6.9 6.7 6.6 6.5 6.4 6.2 6.0 6.1 6.1 6.1 6.0 6.0 6.1 6.2 6.1
6.3 6.4 6.6 6.8 6.9 6.9 6.6 6.2 6.0 6.0 5.8 4.7 5.6 5.7 6.1 7.0 7.8 8.0 8.1 8.2 8.2 8.1 7.6 7.5 7.4 7.2 7.2 7.2 7.2 7.1 6.9 6.9 6.9 6.6 6.3 6.0 5.9 5.9 5.9 6.0 5.9 5.9 5.9 6.1
6.2 6.2 6.3 6.5 6.5 6.6 6.5 6.0 5.9 5.0 3.6 4.3 5.7 5.2 6.6 6.9 7.1 7.5 7.8 8.1 7.7 7.7 7.6 7.3 7.2 7.3 7.0 7.1 7.0 7.1 7.1 7.0 6.9 6.6 6.3 6.0 5.7 5.6 5.6 5.6 5.7 5.8 5.9 6.0
6.3 5.9 6.3 6.5 6.8 6.8 7.0 6.9 6.7 4.4 3.7 4.2 4.9 4.4 6.3 6.7 6.9 7.1 7.6 7.6 7.8 7.7 7.3 7.5 7.4 7.1 6.9 6.8 6.8 6.7 6.7 6.6 6.7 6.6 6.2 6.0 5.7 5.6 5.5 5.7 5.7 5.7 5.8 5.8
6.5 6.5 6.4 6.7 6.7 6.6 6.2 6.0 6.5 6.7 6.2 4.7 5.7 6.1 6.2 6.5 7.0 7.3 7.5 7.6 8.0 7.7 7.1 7.2 7.3 6.9 6.6 6.6 6.6 6.6 6.7 6.7 6.6 6.6 6.4 6.0 5.7 5.6 5.4 5.3 5.4 5.6 5.7 5.6
6.4 6.3 6.4 6.4 6.5 6.4 6.1 6.1 5.7 5.7 4.2 3.3 5.4 5.4 6.0 6.5 6.9 7.0 7.2 7.5 7.7 7.7 7.3 7.0 6.7 6.5 6.5 6.6 6.5 6.4 6.5 6.5 6.3 6.2 6.2 5.7 5.4 5.3 5.2 5.2 5.3 5.4 5.5 5.3
6.6 6.3 5.8 5.9 6.0 6.4 6.3 5.6 5.9 6.0 6.4 3.8 3.2 6.0 6.8 6.8 6.8 6.8 7.2 7.5 7.6 7.7 7.8 7.3 6.8 6.6 6.3 6.3 6.3 6.2 6.1 6.4 6.2 6.0 5.8 5.7 5.4 5.2 5.2 5.3 5.4 5.5 5.5 5.3
7.1 6.4 5.7 5.8 6.0 6.2 6.3 6.7 6.5 6.5 5.2 6.2 6.2 5.5 6.2 6.5 6.6 7.0 7.2 7.3 7.1 7.1 7.2 7.2 7.4 7.2 6.5 6.1 5.8 5.7 5.8 6.0 6.0 5.9 5.8 5.5 5.3 5.3 5.2 5.3 5.5 5.6 5.5 5.2
7.1 6.1 5.9 5.8 5.5 5.3 5.8 6.0 6.3 6.3 6.7 6.6 5.3 5.5 6.1 6.4 6.5 6.9 7.1 7.1 7.4 7.4 7.2 7.3 7.3 7.0 6.8 6.0 5.8 5.7 5.6 5.6 5.8 5.9 5.8 5.8 5.7 5.6 5.5 5.4 5.7 5.7 5.5 5.0
6.6 6.5 6.2 6.0 6.5 6.4 5.9 6.1 6.3 6.6 6.5 5.4 5.8 5.9 5.9 5.9 6.4 6.7 6.9 7.4 7.2 7.2 7.2 7.0 7.1 6.7 6.0 5.8 5.8 5.7 5.6 5.7 5.7 5.8 5.8 5.9 6.0 5.8 5.4 5.4 5.6 5.7 5.6 5.2
6.9 6.5 6.6 6.4 6.6 6.8 6.0 6.2 6.9 6.4 5.8 6.5 5.3 6.0 5.8 6.2 6.2 6.2 6.6 6.8 7.1 7.3 7.4 7.2 6.5 6.2 6.0 5.7 5.7 5.5 5.5 5.5 5.8 5.9 6.0 6.2 6.1 6.2 6.2 6.1 6.0 6.0 5.8 5.5
6.5 6.5 6.4 6.4 6.6 6.4 6.1 6.0 6.2 6.3 6.1 6.1 5.2 5.5 5.7 6.2 6.6 6.4 6.7 7.3 7.2 6.8 6.6 6.3 6.3 6.1 5.8 5.3 5.1 5.4 5.7 5.8 5.4 5.6 5.9 6.0 6.3 6.4 6.5 6.6 6.2 5.9 5.9 5.8
6.1 6.4 6.4 6.2 6.3 6.1 6.0 6.0 6.6 6.5 6.5 6.4 6.2 6.3 7.1 6.6 6.9 7.3 7.2 6.8 6.6 6.4 6.5 6.5 6.1 5.8 5.5 5.3 5.3 5.5 5.7 5.8 5.8 5.6 5.8 5.9 6.2 6.4 6.4 6.4 6.3 6.2 6.0 5.7
5.8 5.5 5.6 6.2 6.5 6.6 5.9 6.4 6.7 6.7 7.0 7.0 7.0 6.7 7.0 7.2 7.2 7.3 7.3 6.9 7.3 7.3 6.6 6.4 6.3 6.3 6.3 6.3 6.2 6.1 6.1 6.1 6.0 5.7 5.6 5.8 6.0 6.1 6.2 6.2 6.1 5.8 5.5 5.4
5.8 5.8 5.7 6.3 6.2 6.5 6.3 6.4 5.9 6.1 6.7 7.0 7.0 7.3 7.0 7.2 7.2 7.2 7.7 7.3 7.0 6.8 6.8 6.8 6.8 6.7 6.7 6.8 6.8 6.6 6.5 6.5 6.4 6.4 6.0 5.7 5.7 5.8 5.8 5.9 5.8 5.4 5.1 4.9
6.4 5.9 5.6 5.9 6.4 6.3 6.6 6.7 6.6 6.9 6.3 6.6 6.5 6.8 7.3 7.3 6.6 7.3 7.2 7.2 7.4 7.3 7.0 6.9 7.0 6.9 6.8 6.7 6.7 6.7 6.6 6.5 6.6 6.4 6.0 5.8 5.7 5.7 5.7 5.8 5.8 5.3 5.1 4.7
6.6 6.6 5.8 6.0 6.3 6.5 7.0 7.1 5.9 6.3 7.0 7.0 7.1 7.2 7.1 6.8 6.6 6.4 6.5 6.6 6.9 7.0 7.0 6.9 6.8 6.8 6.7 6.7 6.6 6.6 6.5 6.5 6.4 6.3 6.0 5.8 5.7 5.7 5.7 5.8 5.8 5.3 4.7 4.8
6.3 6.6 6.2 6.2 7.0 6.9 7.0 6.8 6.6 6.8 6.4 6.5 6.5 6.8 6.5 6.4 6.3 6.4 6.4 6.5 6.4 6.3 6.3 6.5 6.5 6.6 6.5 6.3 6.4 6.5 6.6 6.5 6.6 6.6 6.5 6.2 6.0 5.9 5.8 5.9 5.5 5.0 4.7 4.7
6.4 6.6 6.5 6.8 6.9 6.9 6.7 6.2 7.0 6.9 6.7 6.8 6.5 6.8 6.5 6.4 6.6 6.7 6.9 6.7 6.3 5.9 5.8 5.9 6.1 6.2 6.2 6.2 6.2 6.2 6.3 6.4 6.5 6.3 6.0 5.9 5.9 6.0 6.0 5.6 5.4 5.2 5.0 4.7
6.9 6.9 7.0 7.0 7.0 7.6 7.1 6.6 7.1 7.0 6.6 6.7 6.5 6.8 6.8 7.1 7.1 6.9 6.6 6.6 6.4 6.0 5.7 5.6 5.6 5.6 5.8 5.9 6.0 6.0 5.9 5.8 5.7 5.7 5.7 5.7 5.6 5.5 5.3 5.2 4.9 4.8 4.7 4.6
6.9 6.8 7.3 7.2 6.9 6.8 6.9 7.0 6.7 6.8 6.7 6.4 6.6 7.0 7.1 7.1 7.0 7.0 6.9 6.7 6.5 6.5 6.6 6.3 6.0 5.8 5.8 5.7 5.8 5.8 5.6 5.4 5.5 5.4 5.4 5.4 5.3 5.2 5.0 4.9 4.7 4.5 4.3 4.3
7.3 7.3 7.3 6.9 7.3 7.3 6.9 5.9 6.0 6.1 6.9 7.0 7.0 7.1 7.3 7.3 7.0 6.7 6.5 6.2 6.0 6.1 6.2 6.0 5.9 5.9 5.9 5.8 5.8 5.6 5.6 5.5 5.4 5.4 5.2 5.1 5.1 5.0 4.8 4.7 4.6 4.6 4.6 4.7
Wind_Speed
3 5 6 12 5 3 5 2 3 4 3 3 7 11 12 10 6 11 13 13 14 15 17 9 11 12 10 9 10 11 11 10 8 5 4 4 3 2 1 4 10 13 16 19
5 5 10 6 6 4 4 3 5 6 3 4 8 14 16 8 12 15 17 17 17 14 9 8 11 12 14 14 13 13 13 12 10 7 4 3 3 1 3 4 7 11 15 17
8 5 6 7 5 6 4 6 5 7 3 3 6 7 8 7 11 15 13 18 12 18 18 12 12 15 11 14 16 15 15 14 12 9 7 4 5 4 3 3 3 6 14 17
6 4 6 5 5 8 5 8 5 4 3 4 1 6 8 7 13 7 14 13 19 19 14 10 10 12 15 18 13 14 14 15 12 12 10 9 6 5 3 4 3 6 11 14
8 10 7 5 8 8 7 5 6 3 3 4 2 4 7 0 8 11 17 16 15 13 12 12 11 14 15 11 14 13 14 14 12 13 12 10 7 3 5 5 8 5 5 8
3 0 6 8 3 5 9 6 6 4 2 4 9 7 9 6 7 6 7 11 10 6 8 8 6 6 6 9 12 13 16 15 14 15 14 14 12 9 8 8 7 5 3 4
2 4 3 4 6 4 2 6 1 3 0 9 2 5 18 6 9 8 11 15 4 5 5 5 7 7 6 11 12 13 15 16 15 16 14 14 13 13 14 14 9 9 6 4
8 8 11 7 9 9 9 8 6 8 4 4 3 8 7 9 9 9 12 10 3 4 5 7 6 6 7 9 11 13 17 15 15 15 14 12 13 9 9 11 10 9 9 9
6 6 2 2 2 9 6 8 3 1 3 2 6 9 9 9 13 10 14 6 6 9 8 8 6 7 9 10 13 14 15 15 14 15 12 12 11 12 11 11 9 7 6 7
5 4 0 1 2 1 6 6 3 1 4 4 6 6 9 5 9 10 9 11 9 8 8 6 6 6 5 6 8 11 14 16 14 13 11 10 11 10 10 10 11 10 7 11
5 4 1 3 6 10 4 5 2 4 5 5 2 8 8 10 9 9 8 7 7 7 8 7 6 5 6 5 7 11 13 11 12 13 12 11 10 10 9 10 10 11 10 12
8 4 7 10 3 3 3 6 8 5 5 3 2 16 4 6 6 4 7 5 2 3 3 4 5 6 6 8 9 11 11 12 14 13 12 12 11 10 10 10 10 10 12 14
8 4 1 7 2 2 5 5 7 3 3 10 7 16 2 4 5 4 5 4 5 5 4 4 4 6 7 8 8 9 11 12 12 12 13 13 14 14 13 12 11 11 11 11
8 5 9 13 5 5 6 7 9 13 4 18 11 32 17 3 5 8 8 7 7 7 7 6 6 7 8 8 9 10 11 10 11 12 13 13 13 13 12 12 13 13 13 13
10 12 8 20 10 3 4 6 14 17 25 12 31 18 31 12 10 12 12 7 7 9 8 9 9 9 8 9 9 10 11 12 13 13 13 14 13 13 12 13 13 13 13 13
5 9 12 21 21 20 19 9 10 21 21 20 29 26 29 16 7 6 12 18 17 10 10 11 12 8 10 12 12 11 13 13 14 14 14 13 13 13 13 13 13 14 14 13
6 7 8 21 21 13 11 25 27 21 18 21 19 32 19 18 15 12 12 11 13 12 13 11 10 10 10 13 13 15 13 11 14 15 13 13 12 13 13 14 14 15 16 15
9 10 4 11 9 15 15 18 22 25 27 25 24 29 27 20 8 11 19 11 14 10 11 12 10 10 11 7 10 9 11 13 14 13 12 12 13 12 12 12 14 13 13 15
19 10 7 4 6 9 10 8 8 11 24 21 24 29 29 23 1 20 16 11 17 13 10 8 7 6 5 7 8 10 10 11 12 13 12 12 12 12 12 12 12 11 11 11
17 18 12 9 11 12 9 8 5 7 14 11 20 25 27 3 6 18 3 1 4 4 3 6 6 5 6 5 8 10 10 10 11 10 10 11 11 12 13 13 12 10 10 9
4 5 15 15 13 6 6 1 4 7 6 3 4 12 5 7 10 3 2 5 2 3 5 4 3 4 3 4 6 6 7 9 6 8 9 9 9 10 10 10 8 9 10 9
4 4 7 6 6 9 8 4 8 6 0 3 3 4 6 7 7 7 4 6 7 6 5 3 2 3 3 5 5 5 5 6 8 9 9 10 10 9 9 12 8 10 11 10
8 8 5 6 3 3 5 6 2 6 3 4 3 4 4 4 5 4 2 2 4 5 4 4 3 4 5 5 5 6 4 6 8 9 9 9 10 10 11 12 11 9 9 8
4 3 3 3 4 5 8 8 5 1 5 5 5 4 3 4 4 3 3 3 3 3 4 4 4 5 5 5 5 5 6 7 8 9 9 9 10 10 9 7 8 8 8 7
4 1 3 4 7 10 11 5 7 7 8 5 2 2 4 4 3 2 2 3 3 4 3 4 5 6 7 6 7 5 4 8 9 9 8 8 7 7 7 5 6 6 6 9
4 5 3 5 5 5 7 3 5 7 6 6 4 0 3 3 1 3 5 3 3 6 5 7 7 6 7 7 7 6 4 6 7 7 6 5 6 5 5 6 5 8 7 8
Wind_Direction
11 101 196 214 183 139 134 161 218 245 242 198 234 258 262 264 258 259 254 253 246 240 249 211 208 201 195 194 188 187 184 184 166 162 173 168 162 154 127 149 152 154 150 146
50 209 224 120 161 149 157 157 254 285 225 188 274 266 269 242 250 239 247 248 242 244 242 215 205 196 200 195 194 189 189 182 183 177 163 145 145 138 116 154 143 170 150 149
172 201 123 145 158 164 197 179 217 227 339 249 331 279 260 277 246 252 248 246 246 235 242 229 201 205 196 196 194 194 189 182 183 169 129 99 94 106 120 175 156 153 163 155
220 198 147 171 190 155 228 207 166 164 66 257 91 287 282 251 252 237 254 240 243 241 239 234 199 200 201 210 194 189 184 181 181 164 166 169 184 168 166 165 153 141 161 161
228 172 172 177 196 159 224 125 158 129 161 351 195 276 246 179 269 254 252 248 245 238 232 235 209 209 212 196 189 185 180 180 176 178 182 179 186 161 142 142 145 132 134 169
236 112 164 193 116 151 149 79 55 57 91 281 180 175 253 193 221 254 258 253 243 242 239 239 239 201 185 174 179 180 181 185 174 180 184 185 180 154 148 153 157 154 148 157
136 215 194 145 92 51 148 114 290 321 49 237 9 192 258 277 230 228 253 268 286 208 227 233 212 208 174 181 182 182 185 190 179 182 185 185 172 169 176 169 169 163 162 176
189 258 167 189 191 167 201 166 172 205 197 255 11 236 251 240 267 252 261 263 266 184 230 246 229 204 183 184 185 187 195 192 184 180 184 181 172 177 179 179 173 179 180 176
167 265 256 143 140 152 194 213 205 93 96 26 224 277 286 259 275 263 257 270 239 241 248 248 228 202 191 187 190 189 194 196 185 184 182 179 176 176 177 174 170 173 171 167
216 276 160 305 113 23 168 167 83 357 192 246 265 265 234 276 252 260 257 254 241 221 233 230 238 217 200 189 186 190 199 199 184 181 180 177 178 176 171 169 173 169 150 157
166 169 229 132 212 173 143 204 152 145 161 190 273 261 213 221 238 263 273 280 286 247 218 219 222 215 190 171 178 190 198 180 177 176 177 172 173 172 169 176 170 167 155 159
205 181 239 216 227 222 297 230 167 152 216 237 186 266 171 219 257 227 270 277 268 244 234 241 218 194 187 193 185 190 188 183 181 175 170 173 164 166 172 176 169 162 165 164
182 197 332 321 351 350 233 204 198 106 70 214 191 259 352 336 299 359 286 279 298 287 245 245 238 219 212 207 192 192 192 190 180 172 174 177 174 176 179 175 167 166 162 163
163 165 193 232 204 136 194 200 195 198 187 243 222 253 249 36 346 323 290 249 254 244 243 247 238 229 222 211 197 196 196 186 176 178 184 184 181 181 180 174 170 170 170 164
181 217 226 245 244 180 233 210 198 210 232 226 250 242 258 247 241 260 274 289 248 236 222 228 239 232 219 214 207 202 201 189 177 184 189 188 180 178 174 171 171 167 169 171
211 235 206 245 239 235 238 224 229 225 229 237 251 258 259 255 234 228 241 250 265 271 251 244 238 217 215 216 213 203 202 195 182 188 196 186 177 175 175 170 169 169 170 165
316 228 191 239 235 230 236 229 230 233 228 220 235 243 255 263 239 244 250 234 241 250 256 256 240 225 220 215 207 208 199 179 189 194 190 184 177 178 179 172 171 174 175 167
238 257 276 251 239 228 234 243 224 225 234 227 241 255 252 251 271 235 243 256 254 244 251 257 251 237 228 211 193 185 177 182 187 193 190 182 176 176 175 175 177 177 175 177
212 219 243 256 267 273 303 245 177 188 245 236 234 250 259 261 308 272 264 227 250 256 254 260 262 260 238 201 180 171 174 179 183 190 185 178 174 168 168 176 174 171 171 175
214 207 215 226 239 255 271 275 206 132 248 216 215 238 248 197 234 262 127 239 265 287 288 290 288 272 248 209 160 163 171 171 187 183 177 167 163 164 172 172 167 165 163 160
176 219 228 231 238 228 226 190 307 171 244 223 205 238 210 192 223 212 260 264 230 280 298 312 313 267 267 150 141 152 152 176 153 136 142 152 158 157 158 147 144 141 133 132
214 242 215 203 242 268 185 111 168 217 203 259 260 234 216 221 253 277 254 267 309 329 333 0 84 71 71 98 100 122 140 130 131 135 135 137 135 139 137 133 135 137 139 146
251 201 233 207 230 248 209 244 233 126 322 294 266 312 283 262 236 270 291 339 345 2 355 11 64 72 45 76 112 127 130 123 122 125 128 129 129 135 143 142 143 140 145 161
236 204 211 20 332 345 322 304 278 286 203 227 249 271 273 265 306 298 351 19 49 36 20 18 45 66 57 41 59 91 111 116 122 126 130 132 133 138 142 146 155 153 164 170
199 6 252 267 275 314 312 318 307 312 263 256 247 285 314 326 335 351 41 37 61 71 54 58 62 59 45 48 60 53 88 129 124 125 127 129 132 140 145 139 160 168 175 181
195 184 190 256 268 219 262 187 238 275 332 299 264 89 60 16 79 96 69 38 67 79 72 71 62 74 58 61 52 27 35 105 121 118 119 127 129 120 124 119 90 78 135 149